Wind_Speed
25 29 29 33 37 38 36 32 31 31 33 33 31 32 31 32 37 40 44 47 49 52 54 55 56 58 61 62 64 64 62 62 62 61 57 55 53 51 49 50 49 56 57 56
24 29 33 36 39 40 39 37 37 35 36 35 31 29 33 35 38 41 43 46 47 49 51 53 56 57 58 59 60 62 63 62 62 64 64 63 60 58 56 55 53 52 53 59
26 32 35 37 38 38 38 38 38 37 34 34 36 33 36 39 44 46 46 45 46 47 49 49 49 51 53 56 57 60 60 60 61 61 63 65 64 63 60 59 58 56 55 54
31 35 37 38 35 35 37 37 37 38 39 37 36 40 41 46 48 46 45 45 45 44 43 43 41 42 41 43 48 52 58 64 62 62 62 62 64 65 63 63 63 60 57 56
37 41 42 40 37 35 35 37 39 39 39 39 40 41 45 46 47 44 43 42 42 41 41 36 34 35 37 38 42 43 44 52 60 65 62 62 61 62 63 63 64 63 62 61
41 44 44 39 37 36 36 38 39 39 39 41 42 46 46 46 44 40 39 37 36 36 38 39 37 36 33 34 33 38 37 38 44 52 60 63 62 61 61 61 63 64 66 64
42 44 42 38 36 36 37 39 41 40 42 44 46 50 46 44 41 33 32 36 41 37 39 39 40 38 38 34 33 34 33 35 35 34 46 50 56 59 60 61 62 64 66 66
45 44 41 36 34 36 37 38 40 43 45 47 47 50 47 40 37 31 31 37 34 29 29 33 39 41 34 33 32 37 39 35 35 31 34 37 39 41 44 45 50 57 63 67
48 47 39 33 34 36 38 38 41 45 47 50 50 50 48 40 32 29 31 33 37 35 34 28 32 33 34 33 29 31 32 38 35 35 33 36 37 36 36 38 38 39 44 53
48 49 37 34 36 37 39 42 42 45 50 51 51 51 45 34 35 37 34 34 39 37 35 35 33 34 33 33 35 33 34 34 36 35 33 34 37 34 32 29 33 38 40 44
46 44 38 38 40 41 45 45 46 47 48 51 53 50 45 38 37 39 42 42 38 36 36 33 33 30 31 32 33 38 38 37 34 34 34 32 37 35 30 34 37 36 40 43
43 41 37 38 42 46 49 49 49 49 49 52 50 52 44 40 41 40 42 44 41 40 35 35 36 32 28 28 32 38 39 40 37 36 33 31 38 44 45 39 37 40 43 41
41 40 42 44 46 49 52 53 49 48 49 48 49 49 44 45 43 44 44 46 46 41 36 36 36 31 32 30 30 35 40 39 41 42 41 41 40 43 44 43 39 42 38 38
41 42 44 48 47 49 52 51 46 45 47 45 44 47 40 42 41 44 45 45 42 38 37 35 34 34 33 34 31 32 33 38 41 44 46 42 37 37 40 41 36 32 32 38
42 45 46 50 50 50 54 48 40 41 43 46 41 45 41 41 41 43 42 41 37 38 39 39 41 35 33 33 30 32 33 33 36 39 40 40 39 36 37 35 35 36 34 31
45 48 50 50 50 52 52 44 40 36 34 38 39 37 41 40 38 38 36 37 38 39 38 37 37 35 36 33 30 29 33 33 33 29 29 27 37 40 36 35 33 34 30 22
46 49 52 53 52 54 52 42 35 35 35 35 38 37 37 36 35 35 33 37 38 38 38 37 38 38 35 33 31 31 35 30 28 28 27 25 31 41 38 36 31 28 33 26
50 53 55 55 53 47 40 35 33 34 34 31 34 35 36 36 30 34 39 42 40 40 40 40 39 35 34 34 34 33 33 29 28 28 25 24 27 38 39 36 31 27 27 26
53 55 55 52 47 41 30 36 34 33 25 26 26 30 35 36 32 31 41 40 42 43 44 42 39 34 30 36 36 35 32 30 29 27 27 26 24 35 40 35 31 30 25 22
53 52 50 46 43 32 30 29 26 28 24 29 32 35 37 39 38 27 34 39 41 42 44 43 38 35 34 34 32 27 28 29 25 25 25 23 23 31 39 37 33 32 21 20
49 46 41 39 37 26 26 24 27 32 36 38 40 39 39 40 41 36 37 35 39 40 42 43 42 36 34 30 23 22 29 29 31 26 24 19 19 27 38 39 38 33 23 23
45 42 39 38 30 31 29 28 32 34 37 42 43 42 42 41 42 43 37 38 39 39 38 38 30 27 25 22 19 20 26 32 34 29 26 21 19 25 36 42 38 28 24 24
38 37 37 29 27 28 27 29 33 38 41 45 45 42 42 42 37 41 38 36 34 33 25 18 14 15 15 16 19 22 26 31 33 29 26 22 20 28 32 43 38 28 25 23
36 32 29 26 25 28 30 31 36 38 45 45 44 43 36 41 42 33 32 26 23 17 13 14 15 15 19 22 24 29 27 28 32 35 29 23 24 31 37 44 33 26 21 23
31 29 28 25 26 28 29 33 38 42 44 43 43 42 44 43 31 29 24 23 16 11 12 14 15 20 23 25 26 28 31 36 37 38 29 27 32 31 45 37 31 25 15 20
24 26 27 32 29 28 32 37 40 43 44 43 41 43 43 30 26 26 25 13 9 13 16 20 23 20 20 25 25 23 21 26 29 38 33 33 36 44 41 36 30 24 20 23
Wind_Direction
313 314 318 318 317 317 313 306 302 296 292 287 281 278 280 281 281 281 281 281 280 280 279 278 275 271 267 264 263 261 258 257 256 256 252 252 252 250 250 249 246 243 243 240
318 318 321 317 314 313 311 310 310 307 302 298 295 292 294 293 291 290 288 285 282 280 278 276 276 274 271 266 263 261 259 256 253 252 251 250 249 251 251 251 249 248 248 243
318 317 318 316 314 312 310 312 312 311 306 302 300 298 297 297 300 300 299 294 288 284 281 276 272 267 266 265 261 259 257 255 253 252 250 248 247 244 245 249 249 247 247 247
313 318 320 316 312 309 307 309 311 310 306 304 305 303 305 311 310 308 303 299 294 288 282 280 273 264 264 268 266 260 256 252 251 250 249 248 245 244 241 240 241 240 242 243
317 319 320 316 311 308 307 308 311 310 306 306 306 307 309 313 309 308 302 297 294 290 283 280 274 272 269 269 269 270 269 256 249 245 246 247 246 244 242 240 240 240 239 239
317 317 316 312 308 308 308 308 308 308 305 306 307 308 315 311 312 304 300 294 288 282 278 276 278 277 279 271 275 262 266 261 253 246 242 244 245 245 245 245 244 244 245 241
314 315 312 310 307 307 308 309 306 306 305 305 308 311 315 313 308 304 289 289 286 282 277 273 274 276 275 277 278 258 253 254 250 248 241 238 243 245 246 247 248 249 249 248
312 313 312 310 308 308 311 309 305 305 305 306 308 310 310 313 306 294 291 284 281 282 275 277 274 271 267 270 273 257 252 245 248 251 247 249 244 244 248 250 253 253 251 249
311 313 311 309 309 313 312 310 307 305 304 305 309 308 307 310 304 298 293 291 291 296 275 283 284 280 266 262 255 266 264 248 252 249 251 248 246 248 245 248 250 254 254 253
311 311 309 304 309 312 312 311 307 304 304 306 308 305 309 305 299 298 298 296 295 296 291 279 279 281 276 266 257 262 263 260 254 253 252 249 251 249 246 246 256 257 256 255
308 306 308 307 311 313 312 311 308 306 307 305 305 306 305 299 296 293 292 297 293 294 292 277 281 285 286 273 261 259 259 263 258 250 246 248 241 236 247 263 267 265 260 255
305 304 306 308 311 312 311 313 311 309 308 303 301 300 302 296 295 291 290 294 294 296 289 275 276 275 282 277 268 264 262 259 253 242 239 249 247 248 257 259 259 265 261 251
308 311 311 310 313 314 311 312 310 307 302 302 299 300 304 297 295 290 292 294 295 295 287 277 274 276 287 284 270 262 262 259 257 251 245 260 258 253 256 257 259 262 242 246
309 311 311 309 311 310 309 309 311 303 297 299 293 294 294 293 291 289 293 294 294 291 283 278 277 276 281 286 278 271 261 260 259 257 257 259 253 249 253 255 253 242 248 245
308 308 306 308 312 311 310 312 309 297 297 293 296 291 297 294 291 293 293 292 290 284 280 280 279 280 283 285 276 273 270 262 258 257 255 250 244 239 246 247 241 244 252 259
309 310 308 309 312 311 310 314 309 299 296 296 296 294 293 295 295 294 296 293 286 283 281 279 278 282 287 285 278 269 271 270 260 252 253 249 234 230 235 242 244 245 240 241
311 309 308 310 313 314 316 316 304 297 299 299 296 298 297 295 299 297 292 290 287 285 283 278 277 281 282 279 279 275 270 263 249 249 251 247 230 226 225 235 237 234 235 241
311 310 311 313 315 319 318 311 307 302 303 302 298 301 303 299 297 300 295 293 291 288 285 283 283 282 284 283 281 280 273 250 245 247 246 239 229 224 219 226 225 226 231 238
312 312 314 316 318 321 312 310 318 313 309 296 304 306 305 298 293 297 298 296 295 291 288 285 284 285 281 276 278 275 262 241 241 246 242 237 228 220 216 218 222 218 229 245
313 316 316 316 316 325 311 317 327 326 333 319 315 313 310 307 300 298 294 295 294 291 287 285 285 289 284 276 275 258 244 239 236 236 240 240 230 223 215 212 215 214 226 232
316 315 315 309 317 320 314 315 324 323 323 323 320 318 313 311 309 306 305 301 296 290 290 292 292 288 277 270 258 240 234 232 232 229 229 233 235 225 213 207 208 217 226 219
318 316 313 316 326 319 324 321 322 318 320 323 322 321 315 312 308 307 306 299 294 295 293 291 289 277 265 256 247 233 226 233 239 231 233 237 232 218 209 204 213 217 223 219
315 311 312 316 322 315 315 316 318 316 322 323 320 319 313 312 316 315 311 308 308 304 302 291 280 273 259 253 242 233 240 241 237 233 223 225 229 212 204 202 211 213 215 222
311 315 319 325 320 317 317 316 314 316 320 321 321 318 318 323 322 318 311 307 307 301 299 298 298 286 273 265 253 240 241 232 227 227 226 217 215 204 198 197 202 200 206 192
314 320 321 322 318 312 317 315 318 320 323 327 323 322 326 325 321 322 317 312 304 298 305 311 300 293 284 271 258 246 235 225 226 221 217 205 198 196 186 190 188 193 166 183
311 314 319 322 331 327 323 322 324 328 329 325 323 327 327 324 330 326 321 315 297 303 305 314 312 309 299 286 264 239 229 220 215 210 204 194 184 180 179 180 182 170 185 179
Height
5833 5829 5827 5823 5818 5814 5811 5808 5806 5805 5802 5799 5796 5793 5789 5788 5784 5781 5778 5775 5772 5768 5765 5763 5761 5760 5760 5761 5762 5764 5767 5769 5772 5776 5783 5786 5791 5795 5800 5804 5807 5810 5815 5821
5829 5824 5820 5815 5810 5806 5802 5798 5796 5794 5790 5786 5786 5784 5780 5776 5773 5770 5768 5764 5760 5756 5753 5750 5746 5744 5743 5743 5745 5747 5750 5754 5756 5760 5765 5771 5776 5780 5785 5790 5795 5800 5802 5807
5824 5820 5814 5809 5803 5798 5794 5790 5786 5783 5781 5778 5774 5774 5770 5764 5760 5756 5753 5749 5746 5742 5738 5735 5732 5729 5727 5726 5727 5730 5732 5736 5741 5744 5748 5755 5760 5766 5773 5778 5782 5786 5789 5792
5818 5813 5808 5802 5796 5791 5787 5783 5779 5775 5769 5768 5765 5760 5756 5750 5744 5742 5737 5733 5729 5727 5725 5721 5719 5716 5715 5712 5712 5713 5714 5718 5723 5728 5731 5737 5744 5750 5758 5761 5764 5768 5773 5779
5809 5803 5798 5793 5788 5783 5780 5775 5772 5767 5762 5758 5755 5752 5747 5739 5733 5729 5726 5723 5718 5714 5710 5709 5707 5705 5703 5702 5701 5700 5701 5701 5704 5711 5715 5720 5727 5733 5738 5744 5748 5754 5759 5764
5799 5795 5790 5785 5780 5776 5772 5767 5763 5759 5754 5750 5746 5742 5741 5729 5724 5719 5716 5711 5708 5704 5700 5698 5697 5694 5692 5692 5691 5691 5691 5690 5692 5694 5699 5704 5710 5717 5724 5729 5734 5740 5743 5751
5793 5787 5782 5777 5773 5768 5763 5759 5753 5750 5745 5742 5737 5731 5728 5720 5715 5709 5705 5702 5697 5694 5691 5688 5687 5685 5684 5682 5681 5682 5683 5684 5685 5686 5687 5690 5696 5703 5710 5715 5721 5725 5731 5737
5785 5781 5775 5769 5764 5760 5755 5750 5745 5738 5734 5732 5727 5721 5717 5712 5705 5700 5696 5691 5687 5685 5682 5680 5677 5676 5675 5674 5672 5674 5673 5676 5676 5678 5680 5683 5686 5692 5698 5703 5707 5711 5716 5720
5774 5770 5767 5762 5756 5751 5746 5741 5736 5728 5725 5720 5717 5711 5706 5702 5695 5690 5686 5682 5678 5676 5674 5671 5668 5666 5665 5665 5664 5665 5664 5667 5669 5671 5672 5675 5678 5682 5687 5690 5696 5700 5703 5705
5764 5758 5758 5754 5748 5743 5738 5732 5727 5720 5712 5707 5706 5697 5696 5694 5685 5680 5675 5672 5668 5666 5663 5660 5658 5657 5654 5654 5656 5656 5656 5658 5660 5661 5664 5667 5670 5672 5675 5679 5683 5687 5691 5694
5754 5749 5750 5744 5738 5733 5727 5721 5715 5709 5702 5693 5686 5688 5683 5681 5676 5670 5664 5661 5659 5657 5653 5650 5649 5646 5644 5644 5644 5645 5646 5647 5649 5652 5655 5658 5660 5663 5665 5669 5672 5676 5677 5681
5745 5741 5739 5736 5730 5723 5716 5709 5702 5695 5691 5681 5675 5671 5673 5667 5663 5659 5653 5650 5648 5646 5643 5640 5638 5637 5635 5633 5633 5633 5634 5635 5638 5642 5645 5648 5651 5654 5656 5659 5661 5663 5665 5667
5736 5732 5727 5724 5720 5713 5704 5698 5691 5683 5676 5672 5663 5659 5659 5654 5650 5645 5641 5638 5635 5633 5631 5628 5625 5627 5624 5622 5622 5621 5621 5623 5626 5629 5633 5637 5640 5642 5644 5647 5651 5651 5652 5656
5727 5724 5720 5713 5711 5702 5695 5689 5682 5672 5663 5658 5653 5647 5651 5643 5639 5634 5631 5626 5624 5621 5618 5617 5616 5616 5614 5612 5610 5609 5610 5610 5613 5616 5619 5623 5626 5630 5633 5635 5639 5642 5645 5646
5722 5717 5710 5703 5699 5691 5681 5677 5673 5660 5654 5644 5644 5636 5636 5631 5627 5623 5619 5615 5612 5608 5605 5603 5602 5603 5601 5600 5598 5597 5597 5599 5600 5602 5605 5609 5614 5619 5622 5625 5629 5634 5637 5640
5712 5707 5700 5694 5687 5679 5671 5665 5657 5649 5643 5635 5630 5628 5623 5621 5616 5612 5608 5604 5600 5597 5595 5593 5591 5589 5589 5587 5587 5587 5585 5586 5587 5590 5593 5596 5600 5607 5612 5616 5621 5625 5629 5634
5702 5694 5688 5683 5675 5667 5658 5650 5643 5636 5632 5627 5621 5618 5614 5611 5608 5603 5599 5594 5589 5587 5584 5582 5580 5579 5578 5577 5575 5574 5573 5575 5577 5580 5583 5586 5590 5596 5603 5608 5613 5618 5622 5628
5690 5681 5674 5669 5661 5659 5646 5638 5633 5629 5625 5619 5613 5609 5604 5601 5600 5594 5587 5581 5580 5574 5572 5570 5567 5566 5565 5562 5562 5562 5561 5564 5567 5570 5574 5577 5581 5587 5595 5600 5606 5610 5614 5619
5678 5669 5661 5654 5652 5646 5639 5630 5626 5619 5620 5611 5607 5603 5597 5591 5590 5589 5576 5571 5565 5562 5559 5555 5554 5553 5554 5550 5549 5550 5550 5553 5557 5562 5565 5570 5573 5578 5585 5593 5599 5604 5607 5611
5667 5659 5651 5643 5637 5635 5629 5624 5619 5613 5610 5605 5600 5594 5587 5580 5574 5577 5569 5562 5556 5549 5543 5540 5542 5541 5540 5537 5537 5538 5540 5544 5549 5554 5559 5562 5567 5570 5578 5586 5593 5598 5603 5607
5659 5651 5643 5635 5631 5629 5623 5619 5614 5608 5605 5598 5590 5584 5577 5570 5565 5560 5556 5551 5543 5537 5532 5528 5525 5526 5523 5524 5526 5528 5531 5536 5540 5547 5553 5557 5561 5565 5572 5580 5587 5593 5598 5602
5648 5641 5635 5629 5625 5620 5617 5613 5608 5603 5597 5588 5582 5575 5567 5562 5555 5548 5544 5539 5533 5527 5521 5515 5515 5512 5512 5514 5518 5521 5525 5527 5532 5540 5546 5551 5555 5560 5566 5575 5581 5588 5592 5596
5640 5634 5629 5625 5621 5617 5613 5608 5602 5595 5588 5582 5574 5568 5558 5551 5546 5538 5530 5523 5518 5512 5509 5507 5506 5506 5506 5509 5512 5516 5517 5520 5526 5532 5539 5545 5551 5555 5562 5570 5576 5583 5589 5591
5633 5627 5624 5620 5618 5611 5608 5603 5597 5590 5583 5575 5566 5556 5550 5542 5534 5529 5521 5516 5512 5508 5505 5503 5502 5501 5501 5502 5504 5507 5509 5512 5517 5522 5531 5539 5545 5550 5557 5565 5575 5582 5586 5587
5627 5622 5619 5617 5613 5607 5603 5596 5590 5584 5575 5566 5558 5548 5540 5532 5526 5520 5515 5510 5506 5504 5502 5500 5498 5495 5493 5491 5491 5493 5496 5501 5507 5513 5525 5533 5539 5546 5555 5565 5574 5581 5584 5589
5623 5619 5614 5609 5606 5601 5597 5590 5583 5575 5566 5558 5549 5542 5533 5525 5520 5514 5508 5504 5502 5501 5498 5495 5491 5486 5482 5477 5476 5480 5484 5488 5496 5506 5519 5527 5537 5546 5557 5567 5575 5581 5584 5590